Change the Weather History Date:

Wednesday, November 21, 2012

  Actual Average Record
Temperature  
Mean Temperature 47 °F -  
Max Temperature 64 °F 24 °F 64 °F (2012)
Min Temperature 30 °F 6 °F -2 °F (2013)
Degree Days  
Heating Degree Days 18    
Moisture  
Dew Point 32 °F    
Average Humidity 64    
Maximum Humidity 82    
Minimum Humidity 28    
Precipitation  
Precipitation 0.00 in - - ()
Sea Level Pressure  
Sea Level Pressure 29.74 in    
Wind  
Wind Speed 4 mph (WSW)    
Max Wind Speed 15 mph    
Max Gust Speed -    
Visibility 10 miles    
Events      
Averages and records for this station are not official NWS values.
T = Trace of Precipitation, MM = Missing Value Source: NWS Daily Summary

Daily Weather History Graph

Daily Weather History Graph

Search for Another Location

Airport or City:

Trip Planner

Search our weather history database for the weather conditions in past years. The results will help you decide how hot, cold, wet, or windy it might be!

Date:

Astronomy

Nov. 21, 2012 Rise Set
Actual Time 7:07 AM MST 4:18 PM MST
Civil Twilight 6:34 AM MST 4:51 PM MST
Nautical Twilight 5:57 AM MST 5:28 PM MST
Astronomical Twilight 5:21 AM MST 6:04 PM MST
Moon 12:55 PM MST (11/21) 12:07 AM MST (11/21)
Length of Visible Light 10h 17m
Length of Day
9h 10m
Waxing Gibbous, 62% of the Moon is Illuminated
Nov 21
Waxing Gibbous
Nov 28
Full
Dec 6
Last Quarter
Dec 13
New
Dec 19
First Quarter

Hourly Weather History & Observations

Time (MST) Temp. Windchill Dew Point Humidity Pressure Visibility Wind Dir Wind Speed Gust Speed Precip Events Conditions
12:51 AM 41.0 °F - 30.9 °F 67% 29.82 in 10.0 mi Calm Calm - N/A   Clear
1:51 AM 37.9 °F - 30.9 °F 76% 29.82 in 10.0 mi Calm Calm - N/A   Clear
2:51 AM 37.0 °F - 30.0 °F 76% 29.83 in 10.0 mi Calm Calm - N/A   Clear
3:51 AM 36.0 °F - 28.9 °F 76% 29.82 in 10.0 mi Calm Calm - N/A   Clear
4:51 AM 34.0 °F - 28.9 °F 82% 29.83 in 10.0 mi Calm Calm - N/A   Clear
5:51 AM 36.0 °F - 28.9 °F 76% 29.82 in 10.0 mi Calm Calm - N/A   Clear
6:51 AM 30.9 °F - 26.1 °F 82% 29.81 in 10.0 mi Calm Calm - N/A   Clear
7:51 AM 34.0 °F - 28.0 °F 79% 29.80 in 10.0 mi Calm Calm - N/A   Clear
8:51 AM 43.0 °F - 33.1 °F 68% 29.74 in 10.0 mi Calm Calm - N/A   Clear
9:51 AM 50.0 °F - 37.0 °F 61% 29.71 in 10.0 mi Calm Calm - N/A   Clear
11:51 AM 64.0 °F - 32.0 °F 30% 29.63 in 10.0 mi SSW 15.0 mph - N/A   Clear
12:51 PM 64.9 °F - 30.9 °F 28% 29.61 in 10.0 mi South 9.2 mph - N/A   Clear
1:51 PM 64.9 °F - 30.9 °F 28% 29.60 in 10.0 mi South 12.7 mph - N/A   Clear
2:51 PM 63.0 °F - 32.0 °F 31% 29.60 in 10.0 mi SW 9.2 mph - N/A   Clear
3:51 PM 57.0 °F - 33.1 °F 40% 29.63 in 10.0 mi West 5.8 mph - N/A   Clear
4:51 PM 50.0 °F - 34.0 °F 54% 29.69 in 10.0 mi NW 10.4 mph - N/A   Partly Cloudy
5:51 PM 43.0 °F 37.2 °F 33.1 °F 68% 29.71 in 10.0 mi WNW 10.4 mph - N/A   Clear
6:51 PM 43.0 °F 36.4 °F 34.0 °F 71% 29.75 in 10.0 mi WNW 12.7 mph - N/A   Clear
7:51 PM 39.9 °F 32.9 °F 33.1 °F 77% 29.75 in 10.0 mi WNW 11.5 mph - N/A   Clear
8:51 PM 41.0 °F 33.9 °F 34.0 °F 76% 29.78 in 10.0 mi WSW 12.7 mph - N/A   Mostly Cloudy
9:51 PM 42.1 °F 36.1 °F 35.1 °F 76% 29.78 in 10.0 mi West 10.4 mph - N/A   Scattered Clouds
10:51 PM 39.9 °F 33.9 °F 34.0 °F 79% 29.78 in 10.0 mi West 9.2 mph - N/A   Mostly Cloudy
11:51 PM 41.0 °F 36.4 °F 34.0 °F 76% 29.77 in 10.0 mi West 6.9 mph - N/A   Mostly Cloudy